Morgantown, WV

8:17 PM EST on November 24, 2017 (GMT -0500)
Morgantown Municipal-Hart

Weather History for KMGW - January, 1999

Change the Weather History Date:

Thursday, January 28, 1999

  Actual Average Record
Temperature  
Mean Temperature 47 °F 32 °F  
Max Temperature 57 °F 40 °F 64 °F (2002)
Min Temperature 37 °F 24 °F -9 °F (2014)
Degree Days  
Heating Degree Days 18 33  
Month to date heating degree days 946  
Since 1 July heating degree days 2930  
Cooling Degree Days 0 0  
Month to date cooling degree days 0  
Year to date cooling degree days 0  
Moisture  
Dew Point 47 °F    
Average Humidity 81    
Maximum Humidity 97    
Minimum Humidity 67    
Precipitation  
Precipitation 0.03 in 0.10 in 0.73 in (1951)
Month to date precipitation 2.54  
Year to date precipitation 2.54  
Sea Level Pressure  
Sea Level Pressure 30.03 in    
Wind  
Wind Speed 10 mph (WSW)    
Max Wind Speed 14 mph    
Max Gust Speed 18 mph    
Visibility 9 miles    
Events Rain    
T = Trace of Precipitation, MM = Missing Value Source: NWS Daily Summary

Daily Weather History Graph

Daily Weather History Graph

Search for Another Location

Airport or City:

Trip Planner

Search our weather history database for the weather conditions in past years. The results will help you decide how hot, cold, wet, or windy it might be!

Date:

Astronomy

Jan. 28, 1999 Rise Set
Actual Time 7:31 AM EST 5:34 PM EST
Civil Twilight 7:02 AM EST 6:03 PM EST
Nautical Twilight 6:30 AM EST 6:35 PM EST
Astronomical Twilight 5:58 AM EST 7:07 PM EST
Moon 2:49 PM EST (1/28) 4:38 AM EST (1/28)
Length of Visible Light 11h 00m
Length of Day
10h 03m
Waxing Gibbous, 89% of the Moon is Illuminated
Jan 28
Waxing Gibbous
Jan 31
Full
Feb 8
Last Quarter
Feb 16
New
Feb 22
First Quarter

Hourly Weather History & Observations

Time (EST) Temp. Windchill Dew Point Humidity Pressure Visibility Wind Dir Wind Speed Gust Speed Precip Events Conditions
12:53 AM 57.0 °F - 46.9 °F 69% 29.96 in 10.0 mi WSW 13.8 mph - N/A   Mostly Cloudy
1:53 AM 57.0 °F - 46.0 °F 67% 29.96 in 10.0 mi WSW 9.2 mph - N/A   Overcast
2:53 AM 55.9 °F - 46.0 °F 69% 29.97 in 10.0 mi SW 11.5 mph - N/A   Mostly Cloudy
3:53 AM 55.9 °F - 46.9 °F 72% 29.98 in 10.0 mi WSW 11.5 mph - N/A   Overcast
4:15 AM 55.4 °F - 46.4 °F 72% 29.99 in 10.0 mi WSW 11.5 mph - N/A   Overcast
4:53 AM 55.0 °F - 48.0 °F 77% 29.99 in 10.0 mi WSW 11.5 mph - N/A   Overcast
5:53 AM 55.0 °F - 48.0 °F 77% 30.00 in 10.0 mi WSW 8.1 mph - N/A   Overcast
6:53 AM 55.0 °F - 48.0 °F 77% 30.01 in 10.0 mi WSW 11.5 mph - N/A   Overcast
7:07 AM 55.4 °F - 48.2 °F 77% 30.02 in 10.0 mi SW 6.9 mph - N/A   Overcast
7:24 AM 55.4 °F - 48.2 °F 77% 30.03 in 10.0 mi WSW 6.9 mph - N/A   Overcast
7:32 AM 55.4 °F - 48.2 °F 77% 30.03 in 10.0 mi WSW 8.1 mph - N/A   Overcast
7:53 AM 55.0 °F - 48.9 °F 80% 30.02 in 9.0 mi WSW 6.9 mph - N/A   Overcast
8:26 AM 55.4 °F - 48.2 °F 77% 30.02 in 9.0 mi SW 5.8 mph - N/A   Overcast
8:53 AM 55.0 °F - 48.9 °F 80% 30.03 in 9.0 mi SW 8.1 mph - N/A   Overcast
9:53 AM 54.0 °F - 50.0 °F 86% 30.03 in 9.0 mi SW 9.2 mph - N/A   Overcast
10:26 AM 53.6 °F - 50.0 °F 88% 30.03 in 10.0 mi SW 8.1 mph - N/A   Overcast
10:53 AM 54.0 °F - 50.0 °F 86% 30.03 in 9.0 mi SW 9.2 mph - N/A   Overcast
11:53 AM 55.0 °F - 48.9 °F 80% 30.01 in 10.0 mi SW 9.2 mph - N/A   Overcast
12:53 PM 54.0 °F - 50.0 °F 86% 29.99 in 4.0 mi WSW 6.9 mph - 0.00 in Rain Light Rain
1:53 PM 52.0 °F - 51.1 °F 97% 29.99 in 5.0 mi SSW 8.1 mph - 0.02 in   Overcast
2:17 PM 53.6 °F - 51.8 °F 94% 29.99 in 6.0 mi SW 8.1 mph - 0.01 in   Overcast
2:53 PM 54.0 °F - 51.1 °F 90% 29.99 in 10.0 mi West 5.8 mph 18.4 mph 0.01 in   Overcast
3:02 PM 53.6 °F - 51.8 °F 94% 29.99 in 10.0 mi WSW 8.1 mph - N/A   Overcast
3:53 PM 54.0 °F - 50.0 °F 86% 30.00 in 9.0 mi West 10.4 mph - N/A   Overcast
5:01 PM 53.6 °F - 48.2 °F 82% 30.02 in 10.0 mi West 8.1 mph 16.1 mph N/A   Overcast
5:28 PM 53.6 °F - 48.2 °F 82% 30.03 in 10.0 mi WNW 8.1 mph - N/A   Overcast
5:41 PM 53.6 °F - 46.4 °F 77% 30.03 in 10.0 mi Variable 6.9 mph 16.1 mph N/A   Overcast
9:24 PM 41.0 °F 34.7 °F 35.6 °F 81% 30.16 in 7.0 mi NNW 10.4 mph 16.1 mph N/A   Overcast
9:53 PM 39.9 °F 34.5 °F 35.1 °F 83% 30.19 in 6.0 mi NNW 8.1 mph 17.3 mph N/A   Haze
10:53 PM 37.9 °F 32.7 °F 32.0 °F 79% 30.23 in 8.0 mi Variable 6.9 mph - N/A   Overcast
11:53 PM 37.0 °F 30.4 °F 30.9 °F 79% 30.24 in 7.0 mi NNW 9.2 mph - N/A   Overcast